GW4879 Weather Reports


Display with metric or nautical units.
time (UTC)temp
F
wind
direction
speed
MPH
gust
MPH
rain 1hr
in
rain 24hr
in
rain mn
in
humidity
%
barometer
mb
20260510094555 60 39 0.0 4.0 0.00 0.00 0.00 63 1014.9
20260510094029 61 0 0.0 3.0 0.00 0.00 0.00 63 1014.9
20260510093531 61 0 0.0 3.0 0.00 0.00 0.00 63 1014.5
20260510093041 61 0 0.0 3.0 0.00 0.00 0.00 63 1014.5
20260510092608 61 0 0.0 3.0 0.00 0.00 0.00 63 1014.7
20260510092029 61 0 0.0 6.0 0.00 0.00 0.00 63 1014.6
20260510091547 62 0 0.0 6.0 0.00 0.00 0.00 63 1014.6
20260510091029 62 0 0.0 6.0 0.00 0.00 0.00 63 1014.5
20260510090530 62 49 0.0 3.0 0.00 0.00 0.00 63 1014.5
20260510090051 62 0 0.0 0.0 0.00 0.00 0.00 63 1014.5
20260510085529 61 0 0.0 1.0 0.00 0.00 0.00 64 1014.5
20260510085032 62 0 0.0 1.0 0.00 0.00 0.00 64 1014.6
20260510084603 62 0 0.0 1.0 0.00 0.00 0.00 64 1014.5
20260510084033 62 0 0.0 5.0 0.00 0.00 0.00 64 1014.3
20260510083530 62 0 0.0 5.0 0.00 0.00 0.00 65 1014.4
20260510083042 62 0 0.0 2.0 0.00 0.00 0.00 65 1014.4
20260510082529 62 0 0.0 1.0 0.00 0.00 0.00 66 1014.4
20260510082029 62 0 0.0 0.0 0.00 0.00 0.00 66 1014.4
20260510081551 62 0 0.0 0.0 0.00 0.00 0.00 66 1014.3
20260510081029 62 0 0.0 0.0 0.00 0.00 0.00 65 1014.2
20260510080528 62 0 0.0 0.0 0.00 0.00 0.00 65 1014.2
20260510080040 63 0 0.0 0.0 0.00 0.00 0.00 65 1014.1
20260510075530 63 0 0.0 0.0 0.00 0.00 0.00 65 1014.0
20260510075030 63 0 0.0 0.0 0.00 0.00 0.00 64 1013.9
20260510074557 63 0 0.0 0.0 0.00 0.00 0.00 64 1014.0
20260510074029 64 0 0.0 0.0 0.00 0.00 0.00 63 1014.0
20260510073530 64 0 0.0 0.0 0.00 0.00 0.00 63 1014.0
20260510073044 64 0 0.0 0.0 0.00 0.00 0.00 62 1013.9
20260510072530 64 0 0.0 0.0 0.00 0.00 0.00 62 1013.9
20260510072031 64 0 0.0 0.0 0.00 0.00 0.00 62 1013.8
20260510071546 64 0 0.0 0.0 0.00 0.00 0.00 62 1013.7
20260510071029 65 0 0.0 0.0 0.00 0.00 0.00 61 1013.5
20260510070530 65 0 0.0 0.0 0.00 0.00 0.00 61 1013.4
20260510070050 65 0 0.0 0.0 0.00 0.00 0.00 61 1013.4
20260510065530 66 0 0.0 0.0 0.00 0.00 0.00 60 1013.4
20260510065030 66 0 0.0 0.0 0.00 0.00 0.00 59 1013.5
20260510064540 67 0 0.0 0.0 0.00 0.00 0.00 59 1013.3
20260510064030 67 0 0.0 0.0 0.00 0.00 0.00 58 1013.4
20260510063530 66 0 0.0 0.0 0.00 0.00 0.00 59 1013.3
20260510063048 66 0 0.0 0.0 0.00 0.00 0.00 59 1013.2
20260510062530 66 0 0.0 0.0 0.00 0.00 0.00 60 1013.2
20260510062034 66 0 0.0 0.0 0.00 0.00 0.00 60 1013.2
20260510061547 66 0 0.0 0.0 0.00 0.00 0.00 61 1013.0
20260510061033 66 0 0.0 0.0 0.00 0.00 0.00 61 1012.8
20260510060529 66 0 0.0 0.0 0.00 0.00 0.00 61 1012.8
20260510060044 66 0 0.0 0.0 0.00 0.00 0.00 61 1012.7
20260510055534 66 0 0.0 0.0 0.00 0.00 0.00 60 1012.5
20260510055029 67 0 0.0 0.0 0.00 0.00 0.00 59 1012.4
20260510054543 67 0 0.0 0.0 0.00 0.00 0.00 59 1012.5
20260510054029 67 0 0.0 0.0 0.00 0.00 0.00 58 1012.3
20260510053530 67 0 0.0 0.0 0.00 0.00 0.00 58 1012.3
20260510053041 67 0 0.0 0.0 0.00 0.00 0.00 58 1012.3
20260510052529 68 0 0.0 0.0 0.00 0.00 0.00 57 1012.3
20260510052030 68 0 0.0 0.0 0.00 0.00 0.00 57 1012.2
20260510051547 68 0 0.0 0.0 0.00 0.00 0.00 56 1012.1
20260510051030 68 0 0.0 0.0 0.00 0.00 0.00 56 1012.0
20260510050529 68 0 0.0 0.0 0.00 0.00 0.00 55 1012.0
20260510050048 69 0 0.0 0.0 0.00 0.00 0.00 53 1011.9
20260510045531 69 0 0.0 0.0 0.00 0.00 0.00 53 1011.9
20260510045030 69 0 0.0 0.0 0.00 0.00 0.00 52 1011.9
20260510044546 69 0 0.0 0.0 0.00 0.00 0.00 52 1011.9
20260510044029 69 0 0.0 0.0 0.00 0.00 0.00 52 1011.9
20260510043533 69 0 0.0 0.0 0.00 0.00 0.00 52 1012.1
20260510043048 70 0 0.0 0.0 0.00 0.00 0.00 51 1012.0
20260510042533 70 0 0.0 0.0 0.00 0.00 0.00 51 1012.1
20260510042029 70 0 0.0 0.0 0.00 0.00 0.00 50 1012.1
20260510041539 70 0 0.0 0.0 0.00 0.00 0.00 50 1012.1
20260510041031 70 0 0.0 0.0 0.00 0.00 0.00 50 1012.3
20260510040529 70 0 0.0 0.0 0.00 0.00 0.00 50 1012.1
20260510040045 70 0 0.0 0.0 0.00 0.00 0.00 50 1012.0
20260510035530 71 0 0.0 0.0 0.00 0.00 0.00 49 1012.1
20260510035030 71 0 0.0 0.0 0.00 0.00 0.00 48 1012.1
20260510034548 71 0 0.0 0.0 0.00 0.00 0.00 47 1011.9
20260510034029 72 0 0.0 0.0 0.00 0.00 0.00 46 1011.7
20260510033529 72 0 0.0 0.0 0.00 0.00 0.00 46 1011.5
20260510033100 72 0 0.0 0.0 0.00 0.00 0.00 46 1011.3
20260510032529 72 0 0.0 0.0 0.00 0.00 0.00 46 1011.2
20260510032029 72 0 0.0 0.0 0.00 0.00 0.00 47 1011.3
20260510031547 72 0 0.0 0.0 0.00 0.00 0.00 46 1011.0
20260510031031 72 0 0.0 0.0 0.00 0.00 0.00 46 1010.8
20260510030534 72 0 0.0 0.0 0.00 0.00 0.00 46 1011.1
20260510030045 72 0 0.0 0.0 0.00 0.00 0.00 46 1011.1
20260510025533 72 0 0.0 0.0 0.00 0.00 0.00 47 1011.0
20260510025029 72 0 0.0 0.0 0.00 0.00 0.00 48 1011.0
20260510024540 72 0 0.0 0.0 0.00 0.00 0.00 48 1011.0
20260510024029 72 0 0.0 0.0 0.00 0.00 0.00 50 1011.0
20260510023531 72 0 0.0 0.0 0.00 0.00 0.00 51 1011.0
20260510023042 72 0 0.0 0.0 0.00 0.00 0.00 54 1010.9
20260510022529 72 0 0.0 0.0 0.00 0.00 0.00 52 1011.1
20260510022030 72 0 0.0 0.0 0.00 0.00 0.00 49 1011.4
20260510021544 73 0 0.0 0.0 0.00 0.00 0.00 51 1011.4
20260510021029 74 0 0.0 0.0 0.00 0.00 0.00 46 1011.5
20260510020530 74 0 0.0 0.0 0.00 0.00 0.00 45 1011.5
20260510020047 76 0 0.0 0.0 0.00 0.00 0.00 43 1011.5
20260510015530 76 0 0.0 0.0 0.00 0.00 0.00 40 1011.3
20260510015029 76 0 0.0 0.0 0.00 0.00 0.00 38 1011.2
20260510014546 76 0 0.0 0.0 0.00 0.00 0.00 42 1011.0
20260510014029 76 0 0.0 0.0 0.00 0.00 0.00 40 1011.2
20260510013530 76 0 0.0 0.0 0.00 0.00 0.00 38 1010.8
20260510013044 76 0 0.0 0.0 0.00 0.00 0.00 36 1010.4
20260510012528 77 0 0.0 0.0 0.00 0.00 0.00 36 1010.2
20260510012033 77 0 0.0 0.0 0.00 0.00 0.00 36 1009.9
20260510011545 77 0 0.0 0.0 0.00 0.00 0.00 36 1009.6
20260510011030 77 0 0.0 0.0 0.00 0.00 0.00 35 1009.3
20260510010532 78 0 0.0 0.0 0.00 0.00 0.00 35 1009.2
20260510010045 78 0 0.0 0.0 0.00 0.00 0.00 34 1008.8
20260510005529 78 0 0.0 0.0 0.00 0.00 0.00 34 1008.6
20260510005029 79 0 0.0 0.0 0.00 0.00 0.00 33 1008.3
20260510004543 79 0 0.0 1.0 0.00 0.00 0.00 33 1008.2
20260510004029 80 0 0.0 1.0 0.00 0.00 0.00 33 1008.1
20260510003527 80 0 0.0 1.0 0.00 0.00 0.00 32 1007.9
20260510003043 81 0 0.0 0.0 0.00 0.00 0.00 31 1007.9
20260510002529 81 0 0.0 0.0 0.00 0.00 0.00 30 1007.8
20260510002028 82 0 0.0 0.0 0.00 0.00 0.00 30 1007.8
20260510001537 82 0 0.0 0.0 0.00 0.00 0.00 29 1007.7
20260510001032 82 0 0.0 1.0 0.00 0.00 0.00 28 1007.7
20260510000528 83 0 0.0 2.0 0.00 0.00 0.00 27 1007.6
20260510000100 83 0 0.0 2.0 0.00 0.00 0.00 27 1007.6
20260509235533 84 0 0.0 0.0 0.00 0.00 0.00 27 1007.6
20260509235027 84 0 0.0 1.0 0.00 0.00 0.00 26 1007.8
20260509234554 84 0 0.0 1.0 0.00 0.00 0.00 26 1007.8
20260509234032 84 0 0.0 1.0 0.00 0.00 0.00 26 1007.8
20260509233533 84 0 0.0 0.0 0.00 0.00 0.00 25 1007.8
20260509233047 85 0 0.0 1.0 0.00 0.00 0.00 26 1007.9
20260509232533 85 0 0.0 1.0 0.00 0.00 0.00 26 1007.9
20260509232029 85 0 0.0 1.0 0.00 0.00 0.00 25 1007.8
20260509231545 86 0 0.0 1.0 0.00 0.00 0.00 23 1008.0
20260509231029 86 0 0.0 0.0 0.00 0.00 0.00 24 1007.9
20260509230533 86 0 0.0 1.0 0.00 0.00 0.00 23 1007.9
20260509230045 86 0 0.0 1.0 0.00 0.00 0.00 24 1007.8
20260509225532 87 0 0.0 0.0 0.00 0.00 0.00 22 1007.8
20260509225030 88 0 0.0 0.0 0.00 0.00 0.00 22 1007.9
20260509224541 88 0 0.0 0.0 0.00 0.00 0.00 22 1007.8
20260509224029 88 0 0.0 0.0 0.00 0.00 0.00 22 1007.7
20260509223531 88 0 0.0 1.0 0.00 0.00 0.00 21 1007.8
20260509223044 88 0 0.0 1.0 0.00 0.00 0.00 21 1007.7
20260509222530 88 0 0.0 0.0 0.00 0.00 0.00 21 1007.7
20260509222035 88 0 0.0 0.0 0.00 0.00 0.00 21 1007.6
20260509221544 89 0 0.0 0.0 0.00 0.00 0.00 20 1007.7
20260509221030 89 0 0.0 0.0 0.00 0.00 0.00 21 1007.7
20260509220530 89 0 0.0 0.0 0.00 0.00 0.00 22 1007.6
20260509220041 89 0 0.0 0.0 0.00 0.00 0.00 20 1007.5
20260509215531 89 0 0.0 0.0 0.00 0.00 0.00 24 1007.5
20260509215032 88 0 0.0 0.0 0.00 0.00 0.00 22 1007.6
20260509214544 88 0 0.0 0.0 0.00 0.00 0.00 22 1007.6
20260509214030 88 0 0.0 0.0 0.00 0.00 0.00 22 1007.5
20260509213531 88 0 0.0 0.0 0.00 0.00 0.00 21 1007.6
20260509213042 87 0 0.0 0.0 0.00 0.00 0.00 22 1007.7
20260509212531 87 0 0.0 0.0 0.00 0.00 0.00 22 1007.8
20260509212031 86 0 0.0 0.0 0.00 0.00 0.00 23 1007.9
20260509211544 87 0 0.0 0.0 0.00 0.00 0.00 22 1007.9
20260509211030 87 0 0.0 0.0 0.00 0.00 0.00 23 1008.0
20260509210531 87 0 0.0 0.0 0.00 0.00 0.00 24 1008.0
20260509210057 87 0 0.0 0.0 0.00 0.00 0.00 22 1008.1
20260509205530 87 0 0.0 0.0 0.00 0.00 0.00 24 1008.2
20260509205030 87 0 0.0 0.0 0.00 0.00 0.00 23 1008.1
20260509204551 87 0 0.0 2.0 0.00 0.00 0.00 22 1008.2
20260509204031 87 0 0.0 2.0 0.00 0.00 0.00 23 1008.3
20260509203533 88 0 0.0 0.0 0.00 0.00 0.00 23 1008.3
20260509203044 88 0 0.0 0.0 0.00 0.00 0.00 22 1008.4
20260509202533 88 0 0.0 0.0 0.00 0.00 0.00 22 1008.5
20260509202031 89 0 0.0 0.0 0.00 0.00 0.00 22 1008.5
20260509201547 89 0 0.0 0.0 0.00 0.00 0.00 21 1008.7
20260509201032 89 0 0.0 0.0 0.00 0.00 0.00 22 1008.6
20260509200532 88 0 0.0 0.0 0.00 0.00 0.00 23 1008.7
20260509200057 88 0 0.0 0.0 0.00 0.00 0.00 22 1008.9
20260509195531 88 0 0.0 0.0 0.00 0.00 0.00 22 1009.0
20260509195029 88 0 0.0 0.0 0.00 0.00 0.00 23 1009.1
20260509194545 88 0 0.0 0.0 0.00 0.00 0.00 22 1009.1
20260509194031 87 0 0.0 0.0 0.00 0.00 0.00 23 1009.2
20260509193530 87 0 0.0 0.0 0.00 0.00 0.00 22 1009.3
20260509193045 86 0 0.0 0.0 0.00 0.00 0.00 22 1009.3
20260509192532 86 202 0.0 0.0 0.00 0.00 0.00 23 1009.3
20260509192032 86 0 0.0 0.0 0.00 0.00 0.00 23 1009.3
20260509191543 86 0 0.0 0.0 0.00 0.00 0.00 25 1009.3
20260509191031 86 0 0.0 2.0 0.00 0.00 0.00 23 1009.4
20260509190532 86 0 0.0 2.0 0.00 0.00 0.00 24 1009.5
20260509190043 87 0 0.0 2.0 0.00 0.00 0.00 23 1009.5
20260509185532 87 0 0.0 1.0 0.00 0.00 0.00 22 1009.4
20260509185032 87 0 0.0 1.0 0.00 0.00 0.00 23 1009.6
20260509184555 87 0 0.0 0.0 0.00 0.00 0.00 25 1009.6
20260509184032 87 0 0.0 0.0 0.00 0.00 0.00 25 1009.7
20260509183532 87 0 0.0 0.0 0.00 0.00 0.00 23 1009.8
20260509183043 86 0 0.0 0.0 0.00 0.00 0.00 25 1009.8
20260509182530 86 0 0.0 0.0 0.00 0.00 0.00 26 1009.8
20260509182029 86 0 0.0 0.0 0.00 0.00 0.00 26 1009.9
20260509181557 85 0 0.0 0.0 0.00 0.00 0.00 26 1009.9
20260509181030 86 0 0.0 0.0 0.00 0.00 0.00 24 1010.0
20260509180530 86 0 0.0 0.0 0.00 0.00 0.00 25 1010.0
20260509180045 86 0 0.0 0.0 0.00 0.00 0.00 25 1010.1
20260509175529 85 0 0.0 0.0 0.00 0.00 0.00 28 1010.1
20260509175029 85 0 0.0 0.0 0.00 0.00 0.00 27 1010.2
20260509174543 86 0 0.0 1.0 0.00 0.00 0.00 25 1010.5
20260509174032 85 0 0.0 2.0 0.00 0.00 0.00 26 1010.4
20260509173529 85 0 0.0 2.0 0.00 0.00 0.00 26 1010.5
20260509173049 85 0 0.0 1.0 0.00 0.00 0.00 25 1010.5
20260509172534 85 0 0.0 0.0 0.00 0.00 0.00 26 1010.5
20260509172030 84 0 0.0 0.0 0.00 0.00 0.00 26 1010.6
20260509171543 84 0 0.0 0.0 0.00 0.00 0.00 26 1010.8
20260509171029 84 0 0.0 1.0 0.00 0.00 0.00 26 1010.9
20260509170530 84 0 0.0 1.0 0.00 0.00 0.00 27 1011.0
20260509170045 84 0 0.0 0.0 0.00 0.00 0.00 28 1011.0
20260509165532 84 0 0.0 1.0 0.00 0.00 0.00 28 1010.9
20260509165029 83 0 0.0 1.0 0.00 0.00 0.00 28 1011.0
20260509164541 82 0 0.0 0.0 0.00 0.00 0.00 32 1010.9
20260509164031 82 0 0.0 0.0 0.00 0.00 0.00 31 1010.9
20260509163534 81 0 0.0 0.0 0.00 0.00 0.00 33 1010.9
20260509163042 81 0 0.0 0.0 0.00 0.00 0.00 33 1011.0
20260509162529 81 0 0.0 1.0 0.00 0.00 0.00 34 1011.1
20260509162032 81 0 0.0 1.0 0.00 0.00 0.00 35 1011.1
20260509161546 80 0 0.0 0.0 0.00 0.00 0.00 37 1011.1
20260509161033 79 0 0.0 0.0 0.00 0.00 0.00 37 1011.0
20260509160528 80 0 0.0 0.0 0.00 0.00 0.00 37 1010.9
20260509160046 80 245 0.0 0.0 0.00 0.00 0.00 37 1011.0
20260509155530 80 0 0.0 0.0 0.00 0.00 0.00 37 1010.9
20260509155029 80 0 0.0 1.0 0.00 0.00 0.00 37 1010.9
20260509154543 79 0 0.0 1.0 0.00 0.00 0.00 38 1011.0
20260509154034 79 0 0.0 0.0 0.00 0.00 0.00 39 1010.9
20260509153533 78 0 0.0 0.0 0.00 0.00 0.00 39 1011.0
20260509153047 78 0 0.0 0.0 0.00 0.00 0.00 40 1011.0
20260509152529 77 0 0.0 0.0 0.00 0.00 0.00 41 1011.0
20260509152036 77 0 0.0 0.0 0.00 0.00 0.00 41 1011.0
20260509151544 76 0 0.0 0.0 0.00 0.00 0.00 43 1011.0
20260509151032 76 0 0.0 0.0 0.00 0.00 0.00 42 1010.9
20260509150531 76 0 0.0 0.0 0.00 0.00 0.00 44 1010.9
20260509150043 75 0 0.0 0.0 0.00 0.00 0.00 46 1010.9
20260509145532 74 0 0.0 0.0 0.00 0.00 0.00 45 1010.9
20260509145034 74 0 0.0 0.0 0.00 0.00 0.00 46 1010.9
20260509144559 74 0 0.0 0.0 0.00 0.00 0.00 47 1010.8
20260509144033 73 0 0.0 1.0 0.00 0.00 0.00 50 1010.9
20260509143531 73 0 0.0 1.0 0.00 0.00 0.00 50 1010.9
20260509143105 73 0 0.0 1.0 0.00 0.00 0.00 51 1010.9
20260509142530 72 0 0.0 0.0 0.00 0.00 0.00 53 1010.8
20260509142032 71 0 0.0 0.0 0.00 0.00 0.00 55 1010.7
20260509141542 71 0 0.0 0.0 0.00 0.00 0.00 56 1010.7
20260509141027 71 0 0.0 0.0 0.00 0.00 0.00 56 1010.8
20260509140528 70 0 0.0 0.0 0.00 0.00 0.00 57 1010.9
20260509140043 69 0 0.0 0.0 0.00 0.00 0.00 58 1010.8
20260509135529 69 0 0.0 0.0 0.00 0.00 0.00 59 1010.8
20260509135030 69 0 0.0 0.0 0.00 0.00 0.00 59 1010.7
20260509134558 68 0 0.0 0.0 0.00 0.00 0.00 62 1010.8
20260509134027 67 0 0.0 0.0 0.00 0.00 0.00 62 1010.8
20260509133527 67 0 0.0 0.0 0.00 0.00 0.00 62 1010.8
20260509133046 67 0 0.0 0.0 0.00 0.00 0.00 63 1010.8
20260509132530 66 0 0.0 0.0 0.00 0.00 0.00 65 1010.9
20260509132030 65 0 0.0 0.0 0.00 0.00 0.00 66 1011.0
20260509131544 64 0 0.0 0.0 0.00 0.00 0.00 67 1011.0
20260509131026 64 0 0.0 0.0 0.00 0.00 0.00 68 1010.9
20260509130532 63 0 0.0 0.0 0.00 0.00 0.00 68 1010.9
20260509130053 63 0 0.0 0.0 0.00 0.00 0.00 69 1010.7
20260509125527 62 0 0.0 0.0 0.00 0.00 0.00 70 1010.6
20260509125031 61 0 0.0 0.0 0.00 0.00 0.00 71 1010.7
20260509124544 61 0 0.0 1.0 0.00 0.00 0.00 71 1010.7
20260509124029 60 0 0.0 1.0 0.00 0.00 0.00 72 1010.6
20260509123529 60 0 0.0 0.0 0.00 0.00 0.00 73 1010.6
20260509123055 59 0 0.0 0.0 0.00 0.00 0.00 74 1010.5
20260509122527 58 0 0.0 0.0 0.00 0.00 0.00 78 1010.4
20260509122029 56 0 0.0 0.0 0.00 0.00 0.00 80 1010.3
20260509121548 55 0 0.0 0.0 0.00 0.00 0.00 81 1010.3
20260509121030 54 0 0.0 0.0 0.00 0.00 0.00 82 1010.3
20260509120534 53 0 0.0 0.0 0.00 0.00 0.00 83 1010.2
20260509120047 53 0 0.0 0.0 0.00 0.00 0.00 84 1010.2
20260509115527 52 0 0.0 0.0 0.00 0.00 0.00 85 1010.2
20260509115029 51 0 0.0 0.0 0.00 0.00 0.00 86 1010.1
20260509114543 51 0 0.0 0.0 0.00 0.00 0.00 87 1009.9
20260509114030 50 0 0.0 0.0 0.00 0.00 0.00 87 1009.9
20260509113530 50 0 0.0 0.0 0.00 0.00 0.00 87 1009.8
20260509113044 50 0 0.0 0.0 0.00 0.00 0.00 87 1009.7
20260509112529 50 0 0.0 0.0 0.00 0.00 0.00 87 1009.7
20260509112032 50 0 0.0 0.0 0.00 0.00 0.00 87 1009.6
20260509111558 50 0 0.0 0.0 0.00 0.00 0.00 87 1009.7
20260509111031 50 0 0.0 0.0 0.00 0.00 0.00 86 1009.7
20260509110530 50 0 0.0 0.0 0.00 0.00 0.00 86 1009.6
20260509110048 50 0 0.0 0.0 0.00 0.00 0.00 86 1009.8
20260509105530 51 0 0.0 0.0 0.00 0.00 0.00 85 1009.7
20260509105031 51 0 0.0 0.0 0.00 0.00 0.00 85 1009.8
20260509104546 51 0 0.0 0.0 0.00 0.00 0.00 84 1009.9
20260509104030 51 0 0.0 0.0 0.00 0.00 0.00 84 1009.8
20260509103530 52 0 0.0 0.0 0.00 0.00 0.00 84 1009.9
20260509103054 52 0 0.0 0.0 0.00 0.00 0.00 83 1009.9
20260509102532 52 0 0.0 0.0 0.00 0.00 0.00 83 1009.9
20260509102031 52 0 0.0 0.0 0.00 0.00 0.00 83 1009.8
20260509101615 52 0 0.0 0.0 0.00 0.00 0.00 83 1009.8
20260509101033 52 0 0.0 0.0 0.00 0.00 0.00 83 1009.9
20260509100535 52 0 0.0 0.0 0.00 0.00 0.00 83 1009.9
20260509100045 52 0 0.0 0.0 0.00 0.00 0.00 84 1009.9
20260509095531 52 0 0.0 0.0 0.00 0.00 0.00 84 1009.9
20260509095034 52 0 0.0 0.0 0.00 0.00 0.00 84 1009.9